Weather History for Queretaro Airport, Mexico

Change the Weather History Date:

Monday, October 22, 2012

  Actual Average Record
Temperature  
Mean Temperature 62 °F -  
Max Temperature 83 °F 73 °F 87 °F (2004)
Min Temperature 41 °F 48 °F 35 °F (2011)
Degree Days  
Heating Degree Days 3    
Growing Degree Days 12 (Base 50)    
Moisture  
Dew Point 47 °F    
Average Humidity 57    
Maximum Humidity 94    
Minimum Humidity 13    
Precipitation  
Precipitation 0.00 in - - ()
Sea Level Pressure  
Sea Level Pressure 30.12 in    
Wind  
Wind Speed 4 mph ()    
Max Wind Speed 12 mph    
Max Gust Speed -    
Visibility 6.9 miles    
Events      
Averages and records for this station are not official NWS values.
T = Trace of Precipitation, MM = Missing Value Source: Averaged Metar Reports

Daily Weather History Graph

Daily Weather History Graph

Search for Another Location

Airport:

Trip Planner

Search our weather history database for the weather conditions in past years. The results will help you decide how hot, cold, wet, or windy it might be!

Date:

Astronomy

Oct. 22, 2012 Rise Set
Actual Time 7:38 AM CDT 7:11 PM CDT
Civil Twilight 7:16 AM CDT 7:33 PM CDT
Nautical Twilight 6:50 AM CDT 7:59 PM CDT
Astronomical Twilight 6:24 AM CDT 8:25 PM CDT
Moon 2:32 PM CDT (10/22) 1:19 AM CDT (10/22)
Length of Visible Light 12h 17m
Length of Day
11h 32m
First Quarter, 56% of the Moon is Illuminated
Oct 22
First Quarter
Oct 29
Full
Nov 6
Last Quarter
Nov 13
New
Nov 20
First Quarter

Hourly Weather History & Observations

Time (CDT) Temp. Dew Point Humidity Pressure Visibility Wind Dir Wind Speed Gust Speed Precip Events Conditions
12:30 AM 62 °F 47 °F 47% 29.71 in 3 mi East 6.7 mph - -  
12:45 AM 53.6 °F 44.6 °F 72% 30.26 in 7.0 mi ESE 6.9 mph - N/A   Clear
1:45 AM 51.8 °F 44.6 °F 76% 30.25 in 7.0 mi Calm Calm - N/A   Clear
2:45 AM 51.8 °F 44.6 °F 76% 30.25 in 7.0 mi NE 6.9 mph - N/A   Clear
3:40 AM 57 °F 49 °F 65% 29.79 in 3 mi East 2.2 mph - -  
3:45 AM 50.0 °F 42.8 °F 76% 30.23 in 7.0 mi NE 5.8 mph - N/A   Clear
4:45 AM 44.6 °F 37.4 °F 76% 30.23 in 7.0 mi Calm Calm - N/A   Clear
5:45 AM 46.4 °F 41.0 °F 81% 30.23 in 7.0 mi Calm Calm - N/A   Clear
6:40 AM 56 °F 50 °F 75% 29.84 in 3 mi SE 2.2 mph - -  
6:45 AM 44.6 °F 41.0 °F 87% 30.23 in 7.0 mi Calm Calm - N/A   Clear
7:45 AM 41.0 °F 39.2 °F 93% 30.27 in 3.0 mi Calm Calm - N/A   Clear
8:45 AM 50.0 °F 48.2 °F 94% 30.28 in 3.0 mi Calm Calm - N/A   Clear
9:40 AM 61 °F 51 °F 62% 29.92 in 3 mi East 8.9 mph - -   Clear
9:45 AM 59.0 °F 51.8 °F 77% 30.29 in 5.0 mi Calm Calm - N/A   Partly Cloudy
10:45 AM 62.6 °F 51.8 °F 68% 30.29 in 5.0 mi ESE 3.5 mph - N/A   Partly Cloudy
11:55 AM 69.8 °F 53.6 °F 56% 30.29 in 6.0 mi Calm Calm - N/A   Partly Cloudy
12:45 PM 75.2 °F 51.8 °F 44% 30.27 in 6.0 mi South 3.5 mph - N/A   Partly Cloudy
12:50 PM 76 °F 49 °F 28% 29.87 in 16 mi ENE 4.5 mph - -   Scattered Clouds
1:45 PM 75.2 °F 50.0 °F 41% 30.22 in 6.0 mi SSE 5.8 mph - N/A   Scattered Clouds
2:45 PM 78.8 °F 50.0 °F 36% 30.19 in 7.0 mi NE 5.8 mph - N/A   Mostly Cloudy
3:45 PM 80.6 °F 50.0 °F 34% 30.16 in 7.0 mi ENE 4.6 mph - N/A   Mostly Cloudy
3:50 PM 84 °F 43 °F 14% 29.68 in 16 mi East 4.5 mph - -   Clear
4:45 PM 80.6 °F 50.0 °F 34% 30.14 in 7.0 mi Calm Calm - N/A   Scattered Clouds
5:45 PM 80.6 °F 50.0 °F 34% 30.13 in 7.0 mi ENE 11.5 mph - N/A   Scattered Clouds
6:45 PM 77.0 °F 48.2 °F 36% 30.14 in 7.0 mi NE 8.1 mph - N/A   Scattered Clouds
6:50 PM 79 °F 37 °F 13% 29.61 in 16 mi East 8.9 mph - -   Partly Cloudy
7:45 PM 71.6 °F 46.4 °F 41% 30.15 in 7.0 mi NNE 11.5 mph - N/A   Scattered Clouds
8:45 PM 68.0 °F 44.6 °F 43% 30.17 in 7.0 mi NE 11.5 mph - N/A   Scattered Clouds
9:45 PM 64.4 °F 46.4 °F 52% 30.22 in 7.0 mi SSE 6.9 mph - N/A   Scattered Clouds
10:45 PM 62.6 °F 48.2 °F 59% 30.24 in 7.0 mi East 9.2 mph - N/A   Scattered Clouds
11:45 PM 57.2 °F 44.6 °F 63% 30.24 in 7.0 mi ESE 6.9 mph - N/A   Scattered Clouds